Hourly Data Report for November 09, 2017

All times are specified in Local Standard Time (LST). Add 1 hour to adjust for Daylight Saving Time where and when it is observed.

DAUPHIN
MANITOBA

51°06'03.000" N
100°03'09.000" W
304.50 m
5040689
71036
YDN

Related Data

No related data is available for this station

Download Data

Hourly Data (November 2017)
Hourly Data Report for November 9, 2017
Temp Definition
°C
Dew Point Temp Definition
°C
Rel Hum Definition
%
Wind Dir Definition
10's deg

Wind Spd Definition
km/h
Visibility Definition
km
Stn Press Definition
kPa
Hmdx Definition


Wind Chill Definition


Weather Definition


TIME
00:00 Legend Double Dagger -15.9 -18.9 78 27 18 16.1 98.97   -25 LegendNANA
01:00 Legend Double Dagger -16.8 -19.6 79 27 15 16.1 98.96   -25 LegendNANA
02:00 Legend Double Dagger -16.9 -19.4 81 27 21 16.1 98.97   -27 LegendNANA
03:00 Legend Double Dagger -16.3 -18.9 80 27 21 16.1 98.98   -26 LegendNANA
04:00 Legend Double Dagger -15.4 -18.0 81 28 26 16.1 99.01   -26 LegendNANA
05:00 Legend Double Dagger -14.7 -17.4 80 27 21 16.1 99.07   -24 LegendNANA
06:00 Legend Double Dagger -14.0 -16.6 81 28 18 16.1 99.13   -22 LegendNANA
07:00 Legend Double Dagger -14.2 -17.2 78 28 21 16.1 99.17   -23 LegendNANA
08:00 Legend Double Dagger -15.6 -18.5 79 27 18 16.1 99.21   -24 LegendNANA
09:00 Legend Double Dagger -15.4 -18.7 76 25 17 16.1 99.30   -24 LegendNANA
10:00 Legend Double Dagger -14.3 -18.1 73 27 13 16.1 99.37   -21 LegendNANA
11:00 Legend Double Dagger -13.2 -17.6 70 27 13 16.1 99.44   -20 LegendNANA
12:00 Legend Double Dagger -11.6 -16.5 67 26 9 16.1 99.50   -17 LegendNANA
13:00 Legend Double Dagger -11.1 -17.0 62 22 5 16.1 99.49   -14 LegendNANA
14:00 Legend Double Dagger -10.7 -16.8 61 21 5 16.1 99.50   -14 LegendNANA
15:00 Legend Double Dagger -11.1 -17.3 61 16 4 16.1 99.50   -14 LegendNANA
16:00 Legend Double Dagger -11.8 -16.7 67 14 5 16.1 99.45   -15 LegendNANA
17:00 Legend Double Dagger -13.6 -17.8 71 10 5 12.9 99.45   -17 LegendNANA
18:00 Legend Double Dagger -14.8 -19.1 70 16 8 16.1 99.42   -20 LegendNANA
19:00 Legend Double Dagger -16.6 -19.9 76 19 9 16.1 99.42   -23 LegendNANA
20:00 Legend Double Dagger -16.2 -19.8 74 18 8 16.1 99.35   -22 LegendNANA
21:00 Legend Double Dagger -16.2 -19.8 74 13 5 16.1 99.31   -20 LegendNANA
22:00 Legend Double Dagger -16.9 -19.7 79 16 4 16.1 99.28   -20 LegendNANA
23:00 Legend Double Dagger -17.3 -19.7 82 13 5 16.1 99.21   -21 LegendNANA

Notes on Data Quality.

Legend

  • E = Estimated
  • M = Missing
  • NA = Not Available
  • ‡ = Partner data that is not subject to review by the National Climate Archives
Date modified: